GFSMA_700_spd_189.txt.gz
Wind_Speed
24 22 22 21 21 22 22 21 21 21 20 20 19 19 21 21 20 17 17 18 18 19 17 15 18 19 19 19 18 18 18 18 18 18 20 21 22 22 23 24 24 24 23
26 26 25 23 23 24 23 23 22 22 21 21 20 22 24 22 22 20 19 20 19 20 18 18 19 19 19 19 18 18 18 19 19 20 20 21 22 24 24 25 25 26 27
29 31 28 26 25 26 25 25 24 24 24 23 22 24 28 26 25 23 22 23 23 22 21 21 20 21 21 20 20 20 19 20 20 20 21 24 24 25 26 26 26 26 27
31 32 32 28 28 28 29 29 25 24 25 25 24 26 31 31 29 27 27 27 27 26 25 24 24 24 24 23 23 22 22 21 20 22 24 25 27 28 27 26 25 26 27
31 32 33 33 31 31 30 30 29 27 29 26 26 29 34 35 33 32 33 33 31 30 30 29 28 28 26 26 26 25 24 23 23 23 24 25 26 26 26 26 26 26 25
33 35 33 32 34 34 34 32 32 32 32 31 28 36 36 38 38 39 40 38 35 36 34 33 32 31 30 29 28 27 26 25 23 21 23 25 26 27 27 26 27 26 26
34 33 29 30 35 34 35 35 35 38 37 39 39 42 41 43 43 42 45 43 41 40 38 38 36 33 33 32 29 28 27 24 24 23 24 24 26 26 27 26 25 25 25
28 29 30 35 35 35 36 39 38 40 44 45 50 48 49 43 45 44 45 44 43 43 40 40 38 37 35 31 30 28 25 25 26 27 26 24 24 25 26 27 27 26 27
31 32 32 34 36 38 37 39 41 44 46 50 42 52 51 54 48 45 45 44 43 41 43 40 37 35 30 31 30 27 27 26 25 28 28 26 26 26 27 28 29 27 28
34 36 37 38 37 35 41 41 41 49 54 53 41 48 53 49 53 49 39 39 40 41 41 41 38 34 32 32 31 29 33 35 35 30 29 29 28 25 26 27 28 27 27
37 39 39 39 40 41 36 43 48 50 43 39 40 46 48 41 40 38 43 46 48 47 43 43 42 41 41 37 33 41 46 46 42 40 33 27 28 27 28 26 26 24 25
42 44 45 44 39 36 39 40 46 41 31 36 34 38 27 14 11 20 30 42 45 37 39 46 53 55 52 48 46 49 47 45 40 36 29 27 27 28 27 24 24 24 24
44 43 44 41 40 39 42 42 28 31 28 6 14 23 24 23 27 34 30 33 35 40 42 43 43 45 46 46 43 43 40 35 36 34 27 27 26 27 26 24 25 25 25
45 42 42 41 39 44 40 27 17 25 14 16 21 24 23 26 29 36 37 34 32 29 33 42 49 46 41 42 33 35 32 31 31 24 27 24 24 26 24 23 24 25 25
39 38 38 43 45 25 37 32 24 20 10 11 11 14 15 15 16 16 19 22 37 47 44 44 44 43 40 43 34 34 30 30 33 33 30 23 22 25 24 22 23 24 23
33 36 41 38 36 34 21 19 11 6 7 6 8 9 9 10 11 12 14 16 17 18 22 23 25 25 28 31 35 36 35 32 34 32 32 23 20 23 21 21 23 23 22
29 29 25 28 23 18 16 13 8 7 9 9 8 8 9 8 8 9 10 11 12 15 18 20 22 24 29 33 32 34 35 33 28 31 28 23 24 24 18 20 22 22 22
24 23 22 20 18 16 17 12 11 11 9 8 6 5 5 5 5 5 6 6 7 10 13 15 19 23 26 28 30 32 36 36 33 31 28 27 29 25 23 20 21 23 23
23 21 20 20 19 18 16 13 13 10 7 6 6 6 4 4 4 6 6 9 12 12 12 16 21 24 27 29 31 33 37 37 37 31 33 30 26 24 21 19 20 22 21
24 22 23 21 20 19 17 14 12 10 9 9 8 6 4 4 7 10 13 14 15 17 17 19 20 24 29 31 33 36 39 42 37 28 27 25 26 21 17 16 20 22 19
24 23 22 18 16 17 16 15 15 14 14 11 7 8 8 9 11 14 15 17 18 21 22 22 23 23 27 30 32 34 38 36 34 30 22 24 22 15 14 15 18 21 18
25 21 19 17 18 17 18 18 16 15 15 11 11 13 12 14 17 18 20 22 23 24 22 21 24 27 29 27 29 32 35 35 29 22 21 21 14 13 14 12 15 18 17
23 22 19 19 19 19 18 17 16 16 16 12 14 16 16 18 21 23 25 26 25 24 23 23 24 26 26 23 25 29 26 29 25 20 17 12 12 12 13 13 15 14 15
22 23 21 22 21 20 19 18 17 16 15 13 16 19 19 22 24 26 28 28 28 26 24 23 24 25 24 20 18 20 22 23 19 15 12 12 12 12 12 13 14 13 14
24 22 22 21 22 21 21 19 18 18 17 16 17 20 23 26 30 31 31 31 28 24 22 22 21 21 20 17 14 17 20 16 12 8 11 12 10 11 12 13 13 13 14
21 22 23 23 21 22 21 20 19 19 19 19 22 23 27 32 32 33 32 31 26 23 20 19 18 18 17 14 14 11 13 10 9 9 10 13 12 11 11 11 12 12 13

GFSMA_700_spd_192.txt.gz
Wind_Speed
21 22 21 21 21 21 21 21 21 21 21 20 22 21 21 23 21 18 16 17 18 18 19 18 18 18 19 20 20 19 19 19 19 17 18 18 19 20 21 21 22 22 22
23 24 23 24 24 23 23 23 23 23 22 23 23 23 23 23 23 21 19 20 20 21 20 19 19 20 21 20 20 19 19 19 18 18 19 19 20 21 22 22 24 23 25
20 26 26 27 26 26 25 26 26 25 24 23 26 25 26 25 25 24 24 24 24 24 23 22 22 24 22 22 22 21 21 20 20 19 19 20 21 22 22 23 23 24 26
24 26 31 30 28 28 29 28 28 27 24 25 28 27 28 28 25 27 30 29 29 29 28 27 25 26 26 25 24 24 24 23 22 21 21 21 22 23 22 22 24 25 25
30 30 27 32 30 29 30 29 31 29 25 27 31 32 31 32 28 28 30 34 34 34 34 32 31 30 30 29 29 28 28 27 28 27 25 24 24 23 22 23 24 24 26
33 32 30 31 31 31 31 30 29 32 30 30 32 35 37 36 34 34 36 38 41 37 38 37 37 35 33 33 32 32 31 31 29 28 26 26 25 25 25 25 24 25 25
33 33 32 33 33 33 30 31 32 31 36 37 38 39 42 43 42 41 44 41 46 44 42 41 40 39 36 34 34 35 33 30 29 28 27 27 27 27 27 26 26 26 25
31 33 33 29 30 32 35 36 35 34 40 47 38 43 45 48 50 49 40 47 47 47 46 46 42 41 40 39 40 34 33 31 30 29 31 28 28 27 28 30 29 28 29
29 30 30 32 32 34 36 36 37 38 38 49 36 46 47 52 50 43 48 50 52 49 44 44 37 36 36 35 39 36 39 35 34 36 35 33 35 34 32 33 31 31 32
27 30 32 33 35 37 36 39 40 47 39 52 44 47 60 59 43 42 36 37 32 37 47 43 36 33 33 36 36 35 37 37 39 40 42 48 41 41 35 31 30 29 30
29 31 34 38 38 40 41 43 39 36 48 53 43 45 46 42 43 39 36 37 39 43 42 43 43 50 48 44 41 42 47 47 46 49 49 48 49 45 43 34 31 30 29
33 36 38 40 41 41 44 42 48 41 48 37 42 35 28 32 22 18 18 23 30 36 37 37 39 37 36 39 36 36 40 42 43 45 45 42 42 44 43 32 31 29 26
36 40 41 39 41 39 46 45 43 44 31 37 33 32 24 22 20 22 20 24 26 27 34 33 34 32 32 32 36 37 33 34 32 35 34 33 39 39 33 29 27 25 27
30 38 42 35 41 41 37 45 50 47 34 25 24 24 23 27 22 27 28 24 25 25 33 36 32 37 36 41 36 33 28 34 28 29 30 33 36 37 32 29 26 24 27
35 37 37 38 37 42 41 38 41 36 28 20 21 19 23 24 27 26 27 28 21 27 30 36 38 38 37 40 37 26 23 23 27 28 29 31 36 38 32 22 23 25 24
33 31 35 37 35 35 36 43 41 25 18 14 17 19 18 18 18 18 21 21 20 23 24 26 29 25 25 26 25 24 25 29 29 30 29 29 32 33 33 23 25 24 23
32 37 33 37 35 37 35 31 20 22 16 14 13 14 15 16 16 16 16 15 14 14 15 16 17 18 19 20 20 22 26 29 29 29 29 29 31 31 36 31 28 25 21
31 28 30 31 31 31 30 22 20 18 17 15 13 15 15 14 13 13 11 10 11 11 13 15 15 18 19 19 22 25 27 30 31 32 32 32 30 29 31 30 29 27 21
31 31 32 32 31 27 24 24 23 19 17 16 19 19 17 15 13 11 10 10 10 11 13 16 18 19 21 21 23 26 29 32 34 34 34 35 34 34 35 32 28 21 19
33 34 33 33 28 27 27 27 23 21 20 21 21 19 18 17 15 13 11 10 10 13 15 19 22 25 25 24 26 29 30 31 35 37 37 37 33 28 26 29 21 21 19
34 35 34 27 30 29 27 25 22 20 22 21 20 21 21 19 16 12 12 13 15 17 21 23 24 24 25 26 27 27 29 32 38 39 33 29 29 27 24 19 16 17 17
34 31 29 30 31 31 27 24 24 24 21 21 24 25 22 18 15 13 14 16 18 21 23 24 25 26 27 26 25 25 29 35 38 31 30 26 24 21 17 12 14 16 14
29 27 30 26 24 28 26 24 25 23 20 24 27 25 21 19 17 13 15 19 21 24 26 27 27 25 25 24 23 23 26 28 28 25 26 23 19 15 10 10 14 13 12
39 35 29 25 32 28 28 28 26 24 22 27 26 24 21 19 18 16 19 22 26 28 30 29 28 26 23 23 20 18 19 21 20 19 20 19 17 12 10 12 12 11 11
28 34 30 29 33 29 27 27 26 23 22 23 25 24 22 20 19 19 22 25 28 30 30 28 27 24 23 21 17 14 12 13 14 16 15 13 9 10 13 13 11 11 10
32 40 34 33 28 29 29 29 29 24 22 23 26 24 22 19 20 22 23 26 28 27 25 23 22 22 21 17 13 9 9 11 11 12 10 10 7 11 12 10 11 10 10

GFSMA_700_spd_195.txt.gz
Wind_Speed
18 19 19 20 21 20 21 22 22 23 23 22 20 20 20 19 20 19 19 19 19 20 19 19 17 16 17 16 17 19 20 20 19 19 20 19 18 17 17 17 18 18 19
21 21 22 21 23 24 24 25 26 26 27 25 23 23 22 21 21 19 19 19 21 22 24 22 21 19 19 19 19 20 20 19 19 19 19 19 19 18 18 18 18 20 20
22 28 22 24 23 26 28 28 28 28 29 27 26 25 25 25 24 23 21 24 22 22 25 27 26 23 24 23 23 22 22 22 22 22 22 21 21 20 19 20 20 21 21
27 28 25 25 27 27 26 29 29 29 32 30 29 28 29 29 29 28 26 28 26 26 27 29 31 29 28 27 27 26 25 24 24 24 24 24 23 23 23 22 22 21 21
28 30 31 30 29 28 30 30 32 29 30 29 33 31 31 33 33 33 32 34 33 31 32 31 37 36 31 29 31 30 29 28 27 26 26 27 26 25 25 25 24 24 24
26 31 33 32 31 32 33 33 33 31 28 31 37 34 36 36 37 35 35 36 37 38 38 36 33 39 38 33 30 31 31 31 30 30 29 28 28 28 28 28 28 28 27
25 28 33 34 34 31 33 33 33 34 31 29 33 33 38 38 42 43 41 44 41 42 39 39 41 45 37 42 39 33 31 30 30 31 31 30 29 29 29 30 31 30 30
23 27 28 31 33 34 34 34 33 35 37 38 37 34 43 44 38 38 47 39 47 49 54 47 51 37 38 39 43 42 45 50 49 41 35 33 34 34 34 32 32 32 32
21 24 27 31 33 32 31 31 32 35 38 40 41 36 40 33 46 35 40 40 40 52 41 42 47 43 40 36 34 36 30 30 38 39 35 38 38 39 40 36 34 33 34
23 26 28 31 33 34 33 33 34 36 36 42 52 49 49 41 40 37 43 41 48 44 35 28 27 26 33 41 31 30 30 36 40 42 42 40 45 45 44 47 49 43 41
28 30 31 33 32 35 35 36 38 37 38 41 42 39 47 43 56 42 44 41 39 31 26 26 18 22 18 23 24 30 29 30 32 36 40 41 47 50 49 51 51 46 41
32 32 33 35 36 39 40 40 38 42 41 44 38 45 50 49 40 32 25 27 27 26 25 26 28 27 31 26 30 27 23 23 34 31 31 31 33 33 32 32 36 41 33
33 30 34 35 37 40 45 44 44 41 40 46 48 45 42 26 21 24 28 22 24 23 22 22 19 18 23 28 27 25 30 34 28 24 24 26 27 27 28 30 33 37 41
34 33 33 34 34 35 37 39 40 42 41 35 38 31 29 29 26 28 23 21 26 25 26 26 15 17 25 25 32 32 31 26 22 18 20 25 26 24 24 27 33 37 37
31 33 36 39 35 34 35 40 37 41 36 37 35 38 32 29 24 24 28 27 28 29 28 19 18 26 26 28 29 28 24 21 17 19 24 26 27 25 25 25 28 31 34
30 33 30 38 35 38 33 35 40 36 35 40 40 34 26 19 27 26 27 26 26 24 23 21 22 28 26 23 23 23 21 19 19 22 23 24 25 26 26 26 30 31 32
35 31 30 31 34 35 36 36 37 36 41 37 29 23 21 22 23 25 26 23 22 21 20 19 16 16 17 18 21 23 23 23 24 25 25 25 27 29 29 30 30 30 34
35 33 31 32 31 33 34 34 34 37 37 33 27 23 23 24 24 25 26 24 21 19 18 17 14 15 15 20 21 21 22 22 24 26 26 27 28 30 31 33 34 32 31
35 32 31 32 33 33 35 36 39 38 31 30 26 27 29 27 25 24 24 21 18 17 16 16 14 14 16 19 21 23 24 24 25 26 28 29 29 31 34 34 32 31 30
33 33 33 35 35 36 39 39 34 31 30 29 27 28 26 25 24 23 22 19 19 18 15 14 14 17 19 21 24 25 26 27 28 28 29 30 30 33 32 28 26 28 30
41 35 38 37 36 40 37 32 29 29 29 27 27 26 25 24 23 22 23 21 18 16 15 15 17 19 22 25 26 27 28 28 28 28 29 30 31 27 28 24 23 23 21
34 39 43 42 44 38 32 28 28 29 29 30 32 26 26 26 24 24 20 18 15 16 17 20 21 25 26 27 28 27 28 28 27 27 29 30 27 22 20 20 20 17 11
33 29 33 29 35 32 33 35 32 32 33 33 29 28 29 26 25 23 23 20 21 20 22 25 27 27 28 28 28 29 27 26 24 26 28 26 21 17 19 18 16 13 12
37 34 25 28 36 36 33 32 32 35 37 34 32 31 28 26 25 27 24 24 23 24 26 28 27 28 29 28 27 25 23 23 26 25 21 16 13 15 15 16 13 10 6
39 42 36 23 37 40 36 31 37 37 33 33 29 30 28 27 27 28 24 25 25 26 28 28 26 26 24 24 23 23 21 20 19 16 13 12 11 13 14 10 7 7 10
42 41 34 28 38 39 35 37 39 35 35 32 30 30 30 28 29 26 26 26 24 26 27 25 19 18 18 19 19 19 18 16 14 14 9 9 10 10 9 6 10 12 11

GFSMA_700_spd_198.txt.gz
Wind_Speed
17 13 19 19 19 19 19 20 22 22 22 21 20 19 18 18 18 17 15 14 13 13 15 17 18 19 20 19 18 17 17 19 19 20 20 19 19 19 19 19 19 18 18
18 19 22 22 24 22 23 22 23 24 25 24 23 24 23 22 21 20 20 18 18 16 16 19 19 20 21 22 22 19 19 19 19 19 19 19 19 19 19 19 18 18 18
21 22 22 25 25 27 26 26 26 26 26 26 26 25 26 26 26 27 24 24 24 22 21 23 24 24 24 24 25 23 21 21 20 20 20 20 21 20 20 19 19 20 20
22 24 25 28 27 29 29 28 29 29 28 27 27 27 26 27 33 30 29 28 28 28 27 27 28 26 28 23 27 27 25 24 23 23 23 23 23 23 22 22 21 21 21
21 26 28 29 30 30 31 31 31 31 31 30 29 31 30 30 33 34 34 31 33 33 34 31 30 34 32 33 33 37 26 30 26 25 23 24 26 25 25 24 24 24 24
20 24 27 29 31 32 32 33 32 34 33 32 32 31 31 35 34 35 34 37 41 34 35 40 35 38 36 40 41 35 36 31 29 26 23 20 22 24 24 25 24 24 25
18 22 24 27 30 31 31 32 34 35 35 35 34 35 34 32 33 32 39 37 32 36 40 43 42 43 48 44 55 48 43 35 34 30 25 32 28 24 22 22 24 25 26
17 19 21 24 24 27 30 32 33 34 37 37 38 38 41 41 34 32 27 28 34 32 39 35 40 41 44 43 36 36 35 32 38 40 41 44 44 42 44 42 37 37 34
17 18 19 20 22 25 29 31 35 35 37 37 38 38 44 50 44 36 42 36 30 41 44 33 37 36 27 22 22 27 34 32 32 29 30 32 34 38 44 42 43 41 42
21 18 20 21 24 28 31 32 30 31 33 34 37 40 42 46 51 39 37 30 37 38 41 48 38 30 23 21 18 21 25 27 29 31 34 37 38 34 34 38 41 42 41
23 24 23 25 28 32 34 34 33 33 35 35 37 43 43 39 42 47 41 36 35 39 43 38 33 28 26 21 19 19 17 18 19 19 20 26 31 32 28 29 30 31 31
27 27 28 30 32 32 34 33 37 37 38 39 38 44 41 40 37 37 38 33 28 31 42 41 30 26 28 22 23 16 19 22 20 22 30 30 27 24 23 23 24 25 26
30 33 31 32 33 31 31 32 32 35 37 40 38 34 41 38 35 35 32 37 29 27 37 28 32 26 22 19 17 22 24 25 26 29 26 22 20 18 19 19 21 22 23
30 33 37 34 33 37 35 34 34 35 37 38 36 28 37 37 37 33 38 33 30 34 29 23 26 25 20 13 17 25 26 26 23 19 19 19 19 19 21 22 21 22 23
30 31 32 33 34 34 36 37 38 36 35 35 35 35 38 34 35 40 38 31 30 32 25 26 27 24 18 20 24 26 29 23 19 20 22 20 19 21 21 21 21 22 23
31 33 33 33 33 35 33 35 31 32 33 35 39 34 30 34 41 38 31 23 25 26 29 29 26 21 15 21 25 28 25 21 21 22 22 20 21 22 23 24 24 24 26
33 33 34 35 35 34 34 33 33 33 31 33 31 33 33 42 32 21 22 29 25 30 29 25 25 23 19 24 28 24 24 22 21 21 21 21 21 24 26 27 29 29 29
38 39 38 38 37 38 35 33 31 35 33 32 35 31 37 34 30 27 30 31 33 31 28 27 24 21 19 23 24 22 21 22 22 22 23 23 26 26 27 29 30 31 29
39 40 40 37 34 32 33 32 35 34 35 39 37 41 40 33 29 27 25 27 27 27 27 25 21 16 14 16 18 20 22 23 24 24 24 25 23 25 28 30 32 32 31
44 44 42 40 39 38 37 37 34 34 38 41 40 36 29 29 29 27 26 26 26 26 23 20 17 16 15 16 19 20 22 24 26 26 27 24 25 26 29 31 31 30 29
39 41 39 34 31 33 30 32 32 36 40 39 34 29 27 27 26 27 25 25 23 23 19 19 17 15 16 20 21 23 25 27 28 27 25 23 25 29 31 31 28 25 22
36 40 34 36 35 23 28 29 33 42 36 32 29 26 27 29 28 27 28 23 24 21 22 18 18 19 22 24 25 27 31 32 29 25 24 24 27 28 28 26 23 20 18
40 40 40 40 31 32 25 30 34 39 32 30 29 34 33 33 30 30 26 27 24 24 21 21 20 23 24 27 30 30 30 29 27 24 27 27 26 24 22 20 18 17 17
42 41 39 38 34 32 31 35 32 34 39 39 35 32 33 34 32 29 28 29 25 23 22 23 24 25 27 30 30 28 26 24 24 25 25 24 22 19 19 16 14 13 11
43 42 41 37 34 38 42 38 42 37 42 38 37 34 32 34 33 32 33 29 27 25 25 25 26 26 28 29 23 20 19 21 21 21 21 20 17 18 14 10 10 9 7
39 43 44 43 39 43 41 32 48 45 41 36 37 38 37 34 33 34 32 31 28 26 25 25 25 26 24 19 15 16 18 17 17 16 15 16 15 12 8 7 8 8 10